Weather History for Honolulu, HI

Change the Weather History Date:

Monday, May 7, 2012

  Actual Average Record
Temperature  
Mean Temperature 77 °F 77 °F  
Max Temperature 83 °F 84 °F 88 °F (1970)
Min Temperature 70 °F 70 °F 64 °F (1954)
Degree Days  
Heating Degree Days 0 0  
Month to date heating degree days 0 0  
Since 1 July heating degree days 0 0  
Cooling Degree Days 12 12  
Month to date cooling degree days 87 84  
Year to date cooling degree days 1263 1191  
Growing Degree Days 26 (Base 50)    
Moisture  
Dew Point 61 °F    
Average Humidity 65    
Maximum Humidity 84    
Minimum Humidity 46    
Precipitation  
Precipitation T in 0.02 in 0.58 in (1981)
Month to date precipitation 0.01 0.16  
Year to date precipitation 7.45 7.11  
Snow  
Snow 0.00 in - - ()
Month to date snowfall 0.0  
Since 1 July snowfall 0.0  
Snow Depth 0.00 in    
Sea Level Pressure  
Sea Level Pressure 30.12 in    
Wind  
Wind Speed 13 mph (ENE)    
Max Wind Speed 22 mph    
Max Gust Speed 36 mph    
Visibility 10 miles    
Events Rain    
T = Trace of Precipitation, MM = Missing Value Source: NWS Daily Summary

Daily Weather History Graph

Daily Weather History Graph

Search for Another Location

Airport:

Trip Planner

Search our weather history database for the weather conditions in past years. The results will help you decide how hot, cold, wet, or windy it might be!

Date:

Astronomy

May. 07, 2012 Rise Set
Actual Time 5:56 AM HST 6:59 PM HST
Civil Twilight 5:33 AM HST 7:23 PM HST
Nautical Twilight 5:05 AM HST 7:51 PM HST
Astronomical Twilight 4:36 AM HST 8:19 PM HST
Moon 9:12 PM HST (5/7) 7:24 AM HST (5/7)
Length of Visible Light 13h 49m
Length of Day
13h 02m
Waning Gibbous, 95% of the Moon is Illuminated
May 7
Waning Gibbous
May 12
Last Quarter
May 20
New
May 28
First Quarter
Jun 4
Full

Hourly Weather History & Observations

Time (HST) Temp. Heat Index Dew Point Humidity Pressure Visibility Wind Dir Wind Speed Gust Speed Precip Events Conditions
12:53 AM 73.0 °F - 64.9 °F 76% 30.10 in 10.0 mi NNE 8.1 mph - N/A   Mostly Cloudy
1:53 AM 73.0 °F - 64.0 °F 73% 30.10 in 10.0 mi NE 10.4 mph 21.9 mph N/A   Mostly Cloudy
2:53 AM 72.0 °F - 64.9 °F 78% 30.10 in 10.0 mi NNE 8.1 mph - N/A   Mostly Cloudy
3:53 AM 72.0 °F - 63.0 °F 73% 30.10 in 10.0 mi NNE 12.7 mph - N/A   Mostly Cloudy
4:53 AM 72.0 °F - 64.0 °F 76% 30.11 in 10.0 mi ENE 9.2 mph - 0.00 in Rain Light Rain
5:00 AM 71.6 °F - 64.4 °F 78% 30.11 in 10.0 mi East 10.4 mph - 0.00 in Rain Light Rain
5:53 AM 72.0 °F - 62.1 °F 71% 30.12 in 10.0 mi ENE 12.7 mph 18.4 mph 0.00 in   Mostly Cloudy
6:53 AM 73.0 °F - 61.0 °F 66% 30.13 in 10.0 mi NE 9.2 mph - N/A   Scattered Clouds
7:53 AM 75.9 °F - 60.1 °F 58% 30.14 in 10.0 mi ENE 9.2 mph - N/A   Scattered Clouds
8:53 AM 78.1 °F - 59.0 °F 52% 30.15 in 10.0 mi NE 13.8 mph 18.4 mph N/A   Scattered Clouds
9:53 AM 81.0 °F 81.6 °F 60.1 °F 49% 30.14 in 10.0 mi ENE 17.3 mph 21.9 mph N/A   Scattered Clouds
10:53 AM 81.0 °F 81.3 °F 59.0 °F 47% 30.14 in 10.0 mi ENE 17.3 mph 24.2 mph N/A   Scattered Clouds
11:53 AM 81.0 °F 81.6 °F 60.1 °F 49% 30.13 in 10.0 mi ENE 15.0 mph 24.2 mph N/A   Scattered Clouds
12:53 PM 82.9 °F 82.8 °F 59.0 °F 44% 30.12 in 10.0 mi ENE 17.3 mph 23.0 mph N/A   Scattered Clouds
1:53 PM 81.7 °F 82.6 °F 61.9 °F 51% 30.11 in 10.0 mi ENE 17.3 mph 20.7 mph N/A   Scattered Clouds
2:53 PM 82.0 °F 82.1 °F 59.0 °F 45% 30.09 in 10.0 mi ENE 18.4 mph 27.6 mph N/A   Scattered Clouds
3:53 PM 82.0 °F 82.1 °F 59.0 °F 45% 30.08 in 10.0 mi ENE 16.1 mph 21.9 mph N/A   Scattered Clouds
4:53 PM 80.1 °F 80.7 °F 59.0 °F 48% 30.08 in 10.0 mi ENE 18.4 mph 26.5 mph N/A   Scattered Clouds
5:53 PM 78.1 °F - 59.0 °F 52% 30.08 in 10.0 mi NE 13.8 mph 23.0 mph N/A   Scattered Clouds
6:53 PM 75.9 °F - 61.0 °F 60% 30.09 in 10.0 mi NE 11.5 mph - N/A   Scattered Clouds
7:53 PM 75.0 °F - 61.0 °F 62% 30.12 in 10.0 mi ENE 17.3 mph 23.0 mph N/A   Scattered Clouds
8:53 PM 75.0 °F - 61.0 °F 62% 30.13 in 10.0 mi ENE 18.4 mph 21.9 mph N/A   Scattered Clouds
9:53 PM 73.9 °F - 61.0 °F 64% 30.14 in 10.0 mi ENE 12.7 mph 20.7 mph N/A   Scattered Clouds
10:53 PM 73.9 °F - 61.0 °F 64% 30.15 in 10.0 mi ENE 15.0 mph 25.3 mph N/A   Scattered Clouds
11:53 PM 73.9 °F - 62.1 °F 66% 30.15 in 10.0 mi ENE 16.1 mph - N/A   Partly Cloudy